Location: Unspecified
(0.0000°N, 0.0000°E)
Time: 06:45:09
(UTC+00:00)

A-11 Canister half - Visible Passes

Search period start: 02 September 2014 00:00
Search period end: 12 September 2014 00:00
Orbit: 1518 x 1682 km, 47.2° (Epoch: 30 August)

Date Brightness Start Highest point End Pass type
(mag) Time Alt. Az. Time Alt. Az. Time Alt. Az.
02 Sep 10.5 02:54:49 22° SSE 02:56:33 23° SE 03:03:22 10° E visible
02 Sep 8.9 04:53:06 14° SW 05:01:21 70° NW 05:10:35 10° NNE visible
03 Sep 10.6 02:34:04 21° SE 02:34:04 21° SE 02:40:04 10° E visible
03 Sep 8.9 04:32:21 24° SW 04:38:31 77° NW 04:47:46 10° NE visible
04 Sep 10.8 02:13:19 17° ESE 02:13:19 17° ESE 02:16:42 10° E visible
04 Sep 8.8 04:11:35 39° SW 04:15:40 83° NW 04:24:57 10° NE visible
05 Sep 11.1 01:52:31 12° E 01:52:31 12° E 01:53:16 10° E visible
05 Sep 8.8 03:50:47 61° SW 03:52:49 89° NW 04:02:06 10° NE visible
06 Sep 8.8 03:29:58 84° SE 03:29:59 84° SE 03:39:14 10° NE visible
06 Sep 10.2 05:29:03 10° W 05:34:54 18° NW 05:40:47 10° N visible
07 Sep 9.2 03:09:05 60° ENE 03:09:05 60° ENE 03:16:21 10° NE visible
07 Sep 10.1 05:07:20 14° W 05:11:59 20° NW 05:18:21 10° N visible
08 Sep 9.8 02:48:09 40° ENE 02:48:09 40° ENE 02:53:28 10° NE visible
08 Sep 10.0 04:46:24 20° WNW 04:49:05 22° NW 04:55:51 10° N visible
09 Sep 10.4 02:27:09 26° NE 02:27:09 26° NE 02:30:33 10° NE visible
09 Sep 9.9 04:25:24 24° NW 04:26:11 25° NW 04:33:19 10° N visible
10 Sep 10.9 02:06:05 16° NE 02:06:05 16° NE 02:07:37 10° NE visible
10 Sep 9.9 04:04:20 27° NW 04:04:20 27° NW 04:10:45 10° N visible
11 Sep 10.0 03:43:12 26° NNW 03:43:12 26° NNW 03:48:09 10° N visible
